Location: Brownlee
(50.7397°N, 106.0159°W)
Time: 14:10:43
(UTC+00:00)

X-37B - Visible Passes

Search period start: 04 December 2022 00:00
Search period end: 14 December 2022 00:00
Orbit: 277 x 277 km, 45.0° (Epoch: 01 November)

Date Brightness Start Highest point End Pass type
(mag) Time Alt. Az. Time Alt. Az. Time Alt. Az.
10 Dec 2.7 01:03:25 10° SSW 01:04:15 13° S 01:04:15 13° S visible
11 Dec 2.4 01:03:39 10° SW 01:04:54 17° S 01:04:54 17° S visible
12 Dec 2.2 01:04:02 10° SW 01:05:33 19° S 01:05:33 19° S visible
13 Dec 2.1 01:04:32 10° SW 01:06:12 21° SSW 01:06:12 21° SSW visible
